St. George, UT

7:19 AM MST on December 11, 2019 (GMT -0700)
Saint George Municipal

Weather History for KSGU - November, 2019

Change the Weather History Date:

Saturday, November 16, 2019

  Actual Average Record
Temperature  
Mean Temperature 57 °F -  
Max Temperature 72 °F 62 °F 75 °F (1934)
Min Temperature 42 °F 34 °F 20 °F (1956)
Degree Days  
Heating Degree Days 8    
Growing Degree Days 7 (Base 50)    
Moisture  
Dew Point 22 °F    
Average Humidity 27    
Maximum Humidity 40    
Minimum Humidity 16    
Precipitation  
Precipitation 0.00 in - - ()
Sea Level Pressure  
Sea Level Pressure 30.10 in    
Wind  
Wind Speed 3 mph ()    
Max Wind Speed 16 mph    
Max Gust Speed 29 mph    
Visibility 10.0 miles    
Events      
Averages and records for this station are not official NWS values.
T = Trace of Precipitation, MM = Missing Value Source: Averaged Metar Reports

Daily Weather History Graph

Daily Weather History Graph

Search for Another Location

Airport or City:

Astronomy

Nov. 16, 2019 Rise Set
Actual Time 7:13 AM MST 5:23 PM MST
Civil Twilight 6:45 AM MST 5:51 PM MST
Nautical Twilight 6:14 AM MST 6:22 PM MST
Astronomical Twilight 5:43 AM MST 6:53 PM MST
Moon 9:02 PM MST (11/16) 11:08 AM MST (11/16)
Length of Visible Light 11h 05m
Length of Day
10h 10m
Waning Gibbous, 82% of the Moon is Illuminated
Nov 16
Waning Gibbous
Nov 19
Last Quarter
Nov 26
New
Dec 3
First Quarter
Dec 11
Full

Hourly Weather History & Observations

Time (MST) Temp. Windchill Dew Point Humidity Pressure Visibility Wind Dir Wind Speed Gust Speed Precip Events Conditions
12:56 AM 46.9 °F - 19.9 °F 34% 30.09 in 10.0 mi SSE 6.9 mph - N/A   Clear
1:56 AM 50.0 °F - 21.0 °F 32% 30.08 in 10.0 mi Calm Calm - N/A   Clear
2:56 AM 46.9 °F - 19.0 °F 33% 30.08 in 10.0 mi SSE 4.6 mph - N/A   Clear
3:56 AM 46.9 °F - 19.9 °F 34% 30.09 in 10.0 mi Calm Calm - N/A   Clear
4:56 AM 42.1 °F 38.4 °F 18.0 °F 38% 30.11 in 10.0 mi SE 5.8 mph - N/A   Clear
5:56 AM 45.0 °F - 19.9 °F 37% 30.12 in 10.0 mi Calm Calm - N/A   Clear
6:56 AM 43.0 °F - 19.0 °F 38% 30.14 in 10.0 mi Calm Calm - N/A   Clear
7:56 AM 42.1 °F 38.4 °F 19.0 °F 40% 30.17 in 10.0 mi South 5.8 mph - N/A   Clear
8:56 AM 46.9 °F - 21.0 °F 36% 30.18 in 10.0 mi Calm Calm - N/A   Clear
9:56 AM 51.1 °F - 21.9 °F 32% 30.18 in 10.0 mi Calm Calm - N/A   Clear
10:56 AM 55.9 °F - 21.9 °F 27% 30.17 in 10.0 mi Variable 4.6 mph - N/A   Clear
11:56 AM 60.1 °F - 23.0 °F 24% 30.13 in 10.0 mi Calm Calm - N/A   Clear
12:56 PM 63.0 °F - 21.9 °F 21% 30.09 in 10.0 mi Calm Calm - N/A   Clear
1:56 PM 68.0 °F - 21.9 °F 17% 30.04 in 10.0 mi Calm Calm - N/A   Clear
2:56 PM 70.0 °F - 23.0 °F 17% 30.02 in 10.0 mi Calm Calm - N/A   Clear
3:56 PM 71.1 °F - 23.0 °F 16% 30.02 in 10.0 mi West 3.5 mph - N/A   Clear
4:56 PM 72.0 °F - 23.0 °F 16% 30.03 in 10.0 mi SE 3.5 mph - N/A   Clear
5:56 PM 64.0 °F - 21.9 °F 20% 30.05 in 10.0 mi SSE 9.2 mph - N/A   Clear
6:56 PM 66.0 °F - 24.1 °F 20% 30.07 in 10.0 mi ENE 16.1 mph 21.9 mph N/A   Clear
7:56 PM 66.9 °F - 24.1 °F 20% 30.10 in 10.0 mi East 9.2 mph 28.8 mph N/A   Clear
8:56 PM 62.1 °F - 24.1 °F 23% 30.11 in 10.0 mi North 9.2 mph - N/A   Clear
9:56 PM 61.0 °F - 24.1 °F 24% 30.14 in 10.0 mi North 12.7 mph - N/A   Clear
10:56 PM 59.0 °F - 23.0 °F 25% 30.14 in 10.0 mi NNE 6.9 mph - N/A   Clear
11:56 PM 55.9 °F - 24.1 °F 29% 30.16 in 10.0 mi West 4.6 mph - N/A   Clear